カタログに戻る

THOR ABLESTAR DEB

LostLEO
NORAD 48829·DEBRIS·🇺🇸 United States

打ち上げ Jun 29, 1961 から Cape Canaveral Space Force Station

Loading…

次のパス (今後24時間)

TLE

古いSource: Space-Track

元期: Dec 9, 2023, 22:13 UTC

1 48829U 61015NH  23343.92578473  .00003726  00000-0  12401-2 0  9992
2 48829  65.8746 167.8144 0079919 209.7513 149.9026 14.36977455525534

AllMySatでTHOR ABLESTAR DEBをリアルタイム追跡

Download on the App Store